DELTA 1 DEB, 21457

Orbit data source: Space-Track

DELTA 1 DEB, 21457 is space debris in SSO originally from a launch on Thu, 12 Jun 1975 UTC launched from the Air Force Western Test Range (AFWTR). Debris objects in space refer to the collection of defunct objects orbiting the Earth. Examples of debris include non-operational satellites, rocket bodies, and fragments generated from explosions, collisions, or faulty payload assembly.

Loading next visibility...
Identifier
21457, 1975-052ER
Orbit
SSO
Country
Flag of USUS
Related business
Manufacturer
Unknown
Mission
Spacecraft
Bus & Motor
Unknown
Mass
Unknown
Launch date (UTC)
1975-06-12 (50 years ago)
Launch vehicle
Unknown
Launch site
Air Force Western Test Range (AFWTR)
Object type
Payload
Rocket body
Debris
Shape & HBR
Unknown shape, 0.1 m
Radar Cross Section
Small (<0.1 m²)

Expand to show TLE details & history
Last TLE update: 8 hours ago

TLE from 8 hours ago
0 DELTA 1 DEB
1 21457U 75052ER  25287.82291340  .00002947  00000-0  40403-2 0  9996
2 21457  99.9550 198.4951 0291857  36.3370   9.1264 13.43447468669376
Epoch: 2025-10-14T19:44Z
TLE epoch observation values (Epoch: 2025-10-14T19:44:59.717Z)
Latitude
45.22256°
Longitude
-131.49353°
Altitude
887.936 km
Speed
7.519 km/s
True Right ascension
12h 33m 26s
True Declination
45° 03' 13"
Sunlit
Object was in daylight at epoch
Visualization orbit readout
Latitude
Unknown
Longitude
Unknown
Altitude
Unknown
Speed
Unknown
Apparent Right ascension
Unknown
Apparent Declination
Unknown
Sunlit
N/A
Visualization observer readout
Local Sidereal Time
22:15:10
Azimuth
Unknown
Elevation
Unknown
Doppler factor
Unknown
Orbital elements
Apogee altitude
1,311.858 km
Perigee altitude
875.711 km
Semi-major axis
7,471.922 km
Eccentricity
0.02919
Inclination
99.955°
RAAN
198.4951°
Arg. of periapsis
36.337°
True anomaly
9.67665°
Mean anomaly
9.1264°
Eccentric anomaly
9.3995°
Mean motion
3.36043 °/min
Orbital period
107.13 mins
BSTAR
0.0040403
Loading maneuver chart data...
Computing Atmospheric mass density...
Loading historical data...
Loading historical data...
Loading historical data...
Loading historical data...
Loading historical data...
Loading historical data...
Loading historical data...

Documentation

Showing up to 5 results
|